[[{"header":{"parameterUnit":"m.s-1","parameterCategory":1,"la1":30.2991,"la2":30.254,"lo1":-89.0895,"lo2":-89.0444,"dy":0.0017,"dx":0.0017,"nx":28,"ny":28,"refTime":"2024-10-04T21:00:00:Z","depth":0,"parameterNumber":2,"parameterNumberName":"U-component_of_WINDS"},"data":[0,0,0,0,0,0,0,0,0,0,0,0,0,0,0,0,0,0,0,0,0,0,0,0,0,0,0,0,0,0,0,0,0,0,0,0,0,0,0,0,0,0,0,0,0,0,0,0,0,0,0,0,0,0,0,0,0,0,-5.8898,-5.89,0,-5.9071,-5.9073,-5.9075,-5.8966,-5.8961,-5.8956,-5.8951,-5.9132,-5.9141,-5.915,0,0,0,0,0,0,0,0,0,0,0,0,0,-5.8476,-5.8484,-5.8898,-5.89,-5.8902,-5.9071,-5.9073,-5.9075,-5.8967,-5.8961,-5.8955,-5.8949,-5.9129,-5.914,-5.9151,0,0,0,0,0,0,0,0,0,0,0,0,0,-5.8655,-5.8487,-5.8897,-5.8868,-5.8868,-5.907,-5.9073,-5.9076,-5.8969,-5.8961,-5.8953,-5.8946,-5.9125,-5.9139,-5.9153,-5.9394,0,0,-5.9197,-5.9203,0,0,0,0,0,0,0,0,-5.8645,-5.8671,-5.8871,-5.8871,-5.887,-5.8989,-5.899,-5.9183,-5.8971,-5.893,-5.8951,-5.8942,-5.9091,-5.9107,-5.9157,-5.9403,-5.941,-5.9198,-5.9207,-5.9213,-5.9217,0,0,0,0,0,0,0,-5.8633,-5.8663,-5.8966,-5.8874,-5.8873,-5.8848,-5.8865,-5.9026,-5.9051,-5.8933,-5.8926,-5.8948,-5.9089,-5.9143,-5.916,-5.9413,-5.9197,-5.921,-5.9219,-5.9225,-5.9866,-5.9874,0,0,0,0,0,0,-5.8623,-5.8653,-5.8961,-5.8971,-5.8737,-5.8861,-5.888,-5.8959,-5.9049,-5.9056,-5.8954,-5.8942,-5.9122,-5.9143,-5.9166,-5.9454,-5.9213,-5.9226,-5.9234,-5.9858,-5.9868,-5.9877,0,0,0,0,0,0,-5.8614,-5.8651,-5.8954,-5.881,-5.8847,-5.8877,-5.8966,-5.8966,-5.902,-5.9065,-5.9069,-5.9004,-5.9117,-5.9146,-5.9338,-5.9459,-5.9232,-5.9246,-5.9848,-5.9861,-5.9873,-6.0033,0,0,0,0,0,0,-5.8602,-5.8649,-5.874,-5.8813,-5.8855,-5.9123,-5.8973,-5.8975,-5.9045,-5.9031,-5.9113,-5.912,-5.9113,-5.9317,-5.9352,-5.9475,-5.9257,-5.9837,-5.9854,-5.9869,-6.0017,-6.005,-6.0078,0,0,0,0,0,-5.8588,-5.8779,-5.8745,-5.8783,-5.897,-5.913,-5.9154,-5.9142,-5.9055,-5.9147,-5.9176,-5.9117,-5.944,-5.9338,-5.9376,-5.9505,-5.9829,-5.9849,-5.9867,-6.0004,-6.0043,-6.0077,0,0,0,0,0,0,-5.872,-5.8788,-5.8751,-5.8972,-5.9046,-5.9111,-5.9227,-5.9184,-5.9285,-5.9268,-5.9249,-5.9269,-5.947,-5.9507,-5.9391,-5.9743,-5.9621,-5.9649,-5.9712,-5.975,-5.9779,-5.9766,-5.9269,0,0,0,0,0,-5.8775,-5.8898,-5.8951,-5.9141,-5.918,-5.9198,-5.9267,-5.9251,-5.9327,-5.9358,-5.9401,-5.9478,-5.9597,-5.9675,-5.9787,-6.0022,-6.0039,-6.013,-6.016,-6.0184,-6.0208,-6.0335,-6.0376,-5.994,-5.9939,-5.9939,0,0,-5.8889,-5.8942,-5.9021,-5.9169,-5.9224,-5.9353,-5.9225,-5.9366,-5.9462,-5.938,-5.9563,-5.9598,-5.9683,-5.9898,-5.9994,-5.9935,-6.0333,-6.0209,-6.0228,-6.0239,-6.0359,-6.04,-6.0437,-5.9952,-5.995,-5.9948,0,0,-5.9163,-5.9216,-5.9379,-5.9437,-5.9522,-5.9533,-5.9573,-5.9645,-5.9664,-5.9848,-5.9789,-5.9904,-6.0109,-6.0171,-6.023,-6.0529,-6.0478,-6.0566,-6.0724,-6.0848,-6.0882,-6.0912,-6.1019,-6.1057,-6.059,-6.059,-6.0591,0,-5.9295,-5.9486,-5.9469,-5.9615,-5.9682,-5.9613,-5.9779,-5.9836,-5.9955,-6.0003,-5.9934,-6.0189,-6.0242,-6.047,-6.0543,-6.0593,-6.0638,-6.0556,-6.0878,-6.0909,-6.0937,-6.1038,-6.1078,-6.06,-6.0599,-6.0598,-6.0597,0,-5.9643,-5.9777,-5.9899,-6.0013,-6.0094,-6.025,-6.0257,-6.0341,-6.0319,-6.0337,-6.0526,-6.0586,-6.0709,-6.0762,-6.0742,-6.0988,-6.0948,-6.088,-6.0756,-6.0989,-6.1083,-6.1122,-6.0615,-6.0611,-6.0608,-6.0606,0,0,-6.0004,-6.0108,-6.0153,-6.0204,-6.0293,-6.0397,-6.055,-6.0669,-6.0741,-6.0825,-6.0953,-6.1128,-6.1065,-6.1132,-6.1119,-6.1228,-6.1461,-6.1146,-6.1148,-6.1202,-6.1735,-6.1785,-6.183,-6.1428,-6.1435,-6.1441,-6.1728,0,-6.0283,-6.0548,-6.0538,-6.0786,-6.0909,-6.0846,-6.0979,-6.1049,-6.1071,-6.1179,-6.1203,-6.1327,-6.1235,-6.1275,-6.138,-6.141,-6.1567,-6.1389,-6.1547,-6.1553,-6.1526,-6.188,-6.1934,-6.2201,-6.1765,-6.1771,-6.1775,0,-6.0643,-6.0739,-6.0999,-6.107,-6.1121,-6.1241,-6.1349,-6.1454,-6.1532,-6.154,-6.1615,-6.1585,-6.174,-6.1614,-6.1828,-6.1707,-6.1771,-6.1796,-6.1806,-6.182,-6.1677,-6.1902,-6.2286,-6.2326,-6.1834,-6.1829,-6.1825,0,-6.088,-6.1074,-6.1254,-6.13,-6.1388,-6.1473,-6.1514,-6.1585,-6.1657,-6.1753,-6.1799,-6.1912,-6.1974,-6.2063,-6.2064,-6.1972,-6.2281,-6.2154,-6.2292,-6.2292,-6.2359,-6.2355,-6.2758,-6.2402,-6.2402,-6.2401,-6.24,0,-6.1191,-6.1353,-6.1361,-6.1473,-6.1652,-6.1639,-6.1817,-6.1849,-6.1913,-6.203,-6.1983,-6.2094,-6.2089,-6.2202,-6.2204,-6.2381,-6.2409,-6.2421,-6.2419,-6.2424,-6.2423,-6.2465,-6.2446,-6.2412,-6.2409,-6.2407,-6.2405,0,-6.1485,-6.1497,-6.169,-6.1757,-6.1778,-6.1908,-6.1965,-6.2071,-6.2089,-6.2237,-6.2271,-6.23,-6.243,-6.244,-6.2591,-6.2593,-6.2807,-6.2786,-6.278,-6.2776,-6.2913,-6.29,-6.3357,-6.3416,-6.3023,-6.3027,-6.303,0,-6.1683,-6.1805,-6.1886,-6.196,-6.2006,-6.2127,-6.22,-6.2193,-6.2271,-6.237,-6.2464,-6.259,-6.269,-6.2901,-6.2936,-6.3052,-6.3032,-6.3185,-6.3049,-6.3051,-6.3034,-6.3026,-6.3038,-6.321,-6.3215,-6.3218,-6.3221,0,-6.2032,-6.2032,-6.2139,-6.2249,-6.2338,-6.2425,-6.2505,-6.2569,-6.2572,-6.2663,-6.2795,-6.2873,-6.3027,-6.3152,-6.3265,-6.3308,-6.3266,-6.3264,-6.3301,-6.3308,-6.3299,-6.3305,-6.2851,-6.3253,-6.325,-6.3247,-6.3246,-6.3244,-6.2283,-6.2389,-6.2462,-6.2583,-6.2643,-6.272,-6.2822,-6.2853,-6.2963,-6.3087,-6.3076,-6.3223,-6.3299,-6.3446,-6.3498,-6.3613,-6.3561,-6.3617,-6.363,-6.3644,-6.3658,-6.3282,-6.3634,-6.3633,-6.3632,-6.3631,-6.3631,0,-6.2628,-6.2672,-6.2784,-6.2898,-6.2994,-6.2945,-6.3032,-6.3116,-6.3245,-6.3319,-6.3418,-6.3571,-6.3692,-6.3737,-6.3856,-6.3939,-6.3923,-6.3971,-6.3964,-6.3974,-6.3697,-6.3652,-6.3982,-6.3982,-6.3982,-6.3982,-6.3982,-6.3982,-6.2819,-6.2996,-6.3005,-6.3211,-6.3254,-6.3397,-6.3451,-6.3521,-6.358,-6.3752,-6.3852,-6.388,-6.3943,-6.4066,-6.4176,-6.4186,-6.4231,-6.4288,-6.429,-6.4029,-6.3994,-6.396,-6.3918,-6.4298,-6.4298,-6.4557,-6.4559,-6.4561]},{"header":{"parameterUnit":"m.s-1","parameterCategory":1,"la1":30.2991,"la2":30.254,"lo1":-89.0895,"lo2":-89.0444,"dy":0.0017,"dx":0.0017,"nx":28,"ny":28,"refTime":"2024-10-04T21:00:00:Z","depth":0,"parameterNumber":3,"parameterNumberName":"V-component_of_WINDS"},"data":[0,0,0,0,0,0,0,0,0,0,0,0,0,0,0,0,0,0,0,0,0,0,0,0,0,0,0,0,0,0,0,0,0,0,0,0,0,0,0,0,0,0,0,0,0,0,0,0,0,0,0,0,0,0,0,0,0,0,-0.5494,-0.5494,0,-0.5512,-0.5512,-0.5513,-0.5536,-0.5536,-0.5537,-0.5537,-0.5553,-0.5553,-0.5553,0,0,0,0,0,0,0,0,0,0,0,0,0,-0.5476,-0.5476,-0.5494,-0.5494,-0.5495,-0.5512,-0.5512,-0.5513,-0.5536,-0.5536,-0.5537,-0.5537,-0.5553,-0.5553,-0.5553,0,0,0,0,0,0,0,0,0,0,0,0,0,-0.5488,-0.5476,-0.5494,-0.5508,-0.551,-0.5512,-0.5512,-0.5513,-0.5536,-0.5536,-0.5537,-0.5537,-0.5553,-0.5553,-0.5553,-0.5542,0,0,-0.5553,-0.5553,0,0,0,0,0,0,0,0,-0.5487,-0.5488,-0.5506,-0.5507,-0.5509,-0.5522,-0.5512,-0.5523,-0.5535,-0.5526,-0.5537,-0.5538,-0.5542,-0.5543,-0.5545,-0.5543,-0.5544,-0.5553,-0.5554,-0.5554,-0.5554,0,0,0,0,0,0,0,-0.5486,-0.5488,-0.5501,-0.5506,-0.5508,-0.5512,-0.5515,-0.5514,-0.553,-0.5527,-0.5528,-0.553,-0.5543,-0.5545,-0.5546,-0.5544,-0.5553,-0.5554,-0.5554,-0.5554,-0.5531,-0.5531,0,0,0,0,0,0,-0.5484,-0.5487,-0.5501,-0.5502,-0.5499,-0.5512,-0.5515,-0.5517,-0.5531,-0.5533,-0.553,-0.5531,-0.5545,-0.5546,-0.5546,-0.5533,-0.5554,-0.5554,-0.5554,-0.5532,-0.5531,-0.553,0,0,0,0,0,0,-0.5483,-0.5485,-0.55,-0.5495,-0.5497,-0.5512,-0.5515,-0.5518,-0.552,-0.5533,-0.5536,-0.5529,-0.5545,-0.5546,-0.5543,-0.5534,-0.5554,-0.5554,-0.5533,-0.5532,-0.5531,-0.5507,0,0,0,0,0,0,-0.5483,-0.5484,-0.5482,-0.5495,-0.5497,-0.5497,-0.5514,-0.5517,-0.552,-0.5522,-0.5533,-0.5535,-0.5546,-0.5542,-0.5543,-0.5535,-0.5554,-0.5533,-0.5532,-0.5531,-0.5509,-0.5506,-0.5503,0,0,0,0,0,-0.5482,-0.5474,-0.5481,-0.5483,-0.5494,-0.5497,-0.5498,-0.5511,-0.5519,-0.5516,-0.5524,-0.5535,-0.5535,-0.5542,-0.5543,-0.5534,-0.5534,-0.5533,-0.5531,-0.551,-0.5506,-0.5503,0,0,0,0,0,0,-0.546,-0.5476,-0.5484,-0.5481,-0.5487,-0.5501,-0.5497,-0.5507,-0.551,-0.5512,-0.5527,-0.5529,-0.5523,-0.5528,-0.5536,-0.5523,-0.5536,-0.5535,-0.552,-0.5516,-0.5513,-0.5512,-0.5554,0,0,0,0,0,-0.5454,-0.5456,-0.547,-0.5466,-0.5468,-0.5482,-0.5483,-0.5493,-0.5499,-0.5502,-0.551,-0.5515,-0.5516,-0.5517,-0.5518,-0.551,-0.5511,-0.5504,-0.5501,-0.5498,-0.5497,-0.549,-0.5487,-0.5525,-0.5525,-0.5526,0,0,-0.5443,-0.5453,-0.5453,-0.5461,-0.5467,-0.5467,-0.5484,-0.5484,-0.5483,-0.5502,-0.5499,-0.5504,-0.5511,-0.5504,-0.5502,-0.5509,-0.5486,-0.5496,-0.5494,-0.5494,-0.5488,-0.5485,-0.5481,-0.5524,-0.5525,-0.5525,0,0,-0.5423,-0.5431,-0.5428,-0.5433,-0.5441,-0.545,-0.5449,-0.5461,-0.5465,-0.5463,-0.5476,-0.5475,-0.5477,-0.548,-0.5482,-0.5461,-0.5471,-0.5461,-0.5445,-0.5439,-0.5436,-0.5433,-0.5424,-0.542,-0.546,-0.546,-0.5459,0,-0.5408,-0.541,-0.5424,-0.5423,-0.5425,-0.5442,-0.5437,-0.5441,-0.5449,-0.545,-0.5458,-0.5459,-0.5465,-0.5458,-0.5453,-0.5455,-0.5452,-0.546,-0.5435,-0.5432,-0.543,-0.5421,-0.5418,-0.5458,-0.5458,-0.5458,-0.5459,0,-0.539,-0.5391,-0.5387,-0.5394,-0.5396,-0.5393,-0.5405,-0.5405,-0.5413,-0.5421,-0.5416,-0.5424,-0.5426,-0.5425,-0.5434,-0.5419,-0.5423,-0.5433,-0.5446,-0.5425,-0.5417,-0.5414,-0.5456,-0.5457,-0.5457,-0.5458,0,0,-0.5358,-0.5372,-0.537,-0.5373,-0.5383,-0.5383,-0.5379,-0.5382,-0.5381,-0.5386,-0.5382,-0.5382,-0.5391,-0.5393,-0.5401,-0.5396,-0.5376,-0.5406,-0.5406,-0.5399,-0.5358,-0.535,-0.5346,-0.5383,-0.5382,-0.5382,-0.5357,0,-0.5339,-0.5335,-0.5346,-0.5338,-0.5338,-0.5352,-0.5349,-0.5354,-0.536,-0.5359,-0.5366,-0.5365,-0.5377,-0.5378,-0.5373,-0.538,-0.5368,-0.5382,-0.5378,-0.5377,-0.5375,-0.5343,-0.5335,-0.5311,-0.5354,-0.5354,-0.5354,0,-0.5316,-0.532,-0.5312,-0.532,-0.532,-0.5317,-0.5319,-0.5319,-0.5324,-0.5328,-0.533,-0.534,-0.5335,-0.5348,-0.534,-0.5349,-0.5348,-0.5351,-0.535,-0.535,-0.5364,-0.534,-0.5304,-0.53,-0.5349,-0.5349,-0.535,0,-0.5291,-0.5294,-0.5289,-0.5291,-0.5301,-0.5298,-0.5302,-0.5307,-0.5307,-0.5309,-0.5309,-0.531,-0.531,-0.531,-0.5319,-0.5328,-0.5309,-0.5324,-0.5312,-0.5311,-0.5307,-0.5307,-0.5269,-0.5308,-0.5308,-0.5308,-0.5308,0,-0.5269,-0.5263,-0.5278,-0.5275,-0.5268,-0.528,-0.5273,-0.5278,-0.5282,-0.5279,-0.5292,-0.5288,-0.5301,-0.5298,-0.5305,-0.5296,-0.5297,-0.5299,-0.5301,-0.5297,-0.5297,-0.5296,-0.5298,-0.5307,-0.5307,-0.5307,-0.5308,0,-0.524,-0.525,-0.5245,-0.5254,-0.5256,-0.5251,-0.5258,-0.5255,-0.5261,-0.5257,-0.5256,-0.5266,-0.5263,-0.5272,-0.5271,-0.5275,-0.5263,-0.5268,-0.5261,-0.5262,-0.5249,-0.525,-0.5209,-0.5204,-0.5247,-0.5247,-0.5246,0,-0.5224,-0.522,-0.5228,-0.5227,-0.523,-0.5229,-0.5229,-0.524,-0.5239,-0.5243,-0.5239,-0.5237,-0.5236,-0.5231,-0.5237,-0.5235,-0.524,-0.5226,-0.524,-0.5236,-0.5238,-0.5237,-0.5236,-0.5222,-0.5222,-0.5221,-0.5221,0,-0.5195,-0.5199,-0.52,-0.52,-0.52,-0.5201,-0.5203,-0.5201,-0.5213,-0.5211,-0.5209,-0.5208,-0.5206,-0.5204,-0.5203,-0.5206,-0.5214,-0.5217,-0.5214,-0.521,-0.5205,-0.5206,-0.5252,-0.5217,-0.5218,-0.5218,-0.5218,-0.5218,-0.5171,-0.5167,-0.5172,-0.5171,-0.5173,-0.5174,-0.5171,-0.5177,-0.5175,-0.5175,-0.5181,-0.5176,-0.5179,-0.5179,-0.518,-0.5176,-0.5182,-0.5178,-0.5177,-0.5176,-0.5173,-0.5207,-0.5176,-0.5176,-0.5176,-0.5176,-0.5177,0,-0.5141,-0.5145,-0.5143,-0.5145,-0.5144,-0.5153,-0.5155,-0.5153,-0.5149,-0.5151,-0.5149,-0.5145,-0.5142,-0.5147,-0.5145,-0.514,-0.5144,-0.5139,-0.5139,-0.5139,-0.5168,-0.517,-0.5136,-0.5136,-0.5136,-0.5136,-0.5136,-0.5136,-0.5126,-0.5119,-0.5123,-0.5117,-0.512,-0.5116,-0.5116,-0.5116,-0.5118,-0.5113,-0.511,-0.5114,-0.5116,-0.5114,-0.5111,-0.5112,-0.511,-0.5103,-0.5106,-0.5133,-0.5137,-0.5141,-0.5143,-0.5103,-0.5103,-0.5077,-0.5076,-0.5076]}]]